This is the latest recevied weather packets stored in our database for station/object SP3WRO-13. If no packets are shown the sender has not sent any weather packets the latest 1 day(s).
| Time | Temp. | Humidity | Pressure | Rain* | Wind** | Luminosity | Snow |
|---|---|---|---|---|---|---|---|
| 1777963491 | 13.89° C | 82% | 1006.7 hPa | - | 0.45 m/s, 30° | 72 W/m² | - |
| 1777962591 | 14.44° C | 77% | 1006.8 hPa | - | 0.45 m/s, 85° | 80 W/m² | - |
| 1777961691 | 13.89° C | 79% | 1006.7 hPa | - | 0 m/s | 156 W/m² | - |
| 1777960791 | 13.33° C | 82% | 1006.7 hPa | - | 0 m/s | 94 W/m² | - |
| 1777959891 | 13.33° C | 82% | 1006.6 hPa | - | 0 m/s | 53 W/m² | - |
| 1777958991 | 12.78° C | 83% | 1006.7 hPa | - | 0 m/s | 32 W/m² | - |
| 1777958090 | 12.78° C | 82% | 1006.7 hPa | - | 0 m/s | 33 W/m² | - |
| 1777957190 | 12.78° C | 83% | 1006.8 hPa | - | 0.45 m/s, 6° | 60 W/m² | - |
| 1777956290 | 12.22° C | 84% | 1006.8 hPa | - | 0 m/s | 58 W/m² | - |
| 1777955390 | 12.22° C | 85% | 1007 hPa | - | 0 m/s | 46 W/m² | - |
| 1777954490 | 12.22° C | 85% | 1007 hPa | - | 0 m/s | 40 W/m² | - |
| 1777953590 | 11.67° C | 86% | 1007.2 hPa | - | 0 m/s | 23 W/m² | - |
| 1777952690 | 11.67° C | 86% | 1007.1 hPa | - | 0 m/s | 8 W/m² | - |
| 1777951790 | 11.67° C | 88% | 1007.4 hPa | - | 0 m/s | 3 W/m² | - |
| 1777950889 | 11.67° C | 88% | 1007.4 hPa | - | 0 m/s | 1 W/m² | - |
| 1777949989 | 11.67° C | 88% | 1007.6 hPa | - | 0 m/s | - | - |
| 1777949089 | 11.67° C | 88% | 1007.8 hPa | - | 0 m/s | - | - |
| 1777948189 | 11.67° C | 89% | 1007.8 hPa | - | 0 m/s | - | - |
| 1777947289 | 11.67° C | 89% | 1007.9 hPa | - | 0 m/s | - | - |
| 1777946389 | 11.67° C | 89% | 1007.8 hPa | - | 0 m/s | - | - |
| 1777945489 | 11.67° C | 89% | 1007.8 hPa | - | 0 m/s | - | - |
* Rain since midnight (hover to see other rain measurements)
** Current wind speed in m/s (hover to see current wind gust speed)